TimeCDT,TemperatureF,Dew PointF,Humidity,Sea Level PressureIn,VisibilityMPH,Wind Direction,Wind SpeedMPH,Gust SpeedMPH,PrecipitationIn,Events,Conditions,WindDirDegrees,DateUTC
12:14 AM,33.3,27.0,78,30.19,10.0,WNW,9.2,16.1,N/A,,Mostly Cloudy,290,2012-10-06 05:14:00
12:33 AM,34.0,27.0,75,30.19,10.0,WNW,10.4,-,N/A,,Overcast,290,2012-10-06 05:33:00
12:54 AM,34.2,27.5,77,30.19,10.0,WNW,11.5,-,N/A,,Overcast,300,2012-10-06 05:54:00
1:13 AM,34.2,27.9,78,30.19,10.0,WNW,10.4,17.3,N/A,,Overcast,290,2012-10-06 06:13:00
1:53 AM,34.3,28.4,79,30.20,10.0,WNW,10.4,16.1,N/A,,Overcast,300,2012-10-06 06:53:00
2:13 AM,34.3,28.9,81,30.19,10.0,WNW,10.4,16.1,N/A,,Overcast,300,2012-10-06 07:13:00
2:34 AM,34.7,29.1,80,30.20,10.0,WNW,8.1,-,N/A,,Overcast,300,2012-10-06 07:34:00
2:53 AM,34.7,29.3,81,30.20,10.0,WNW,8.1,-,N/A,,Overcast,300,2012-10-06 07:53:00
3:13 AM,34.7,29.5,81,30.20,10.0,WNW,8.1,-,N/A,,Overcast,290,2012-10-06 08:13:00
3:34 AM,34.7,29.1,80,30.20,10.0,NW,8.1,-,N/A,,Overcast,310,2012-10-06 08:34:00
3:54 AM,34.3,28.4,79,30.20,10.0,NW,9.2,-,N/A,,Overcast,310,2012-10-06 08:54:00
4:34 AM,33.6,28.0,80,30.21,10.0,NW,8.1,-,N/A,,Mostly Cloudy,310,2012-10-06 09:34:00
4:54 AM,32.9,27.9,82,30.21,10.0,NW,8.1,-,N/A,,Mostly Cloudy,310,2012-10-06 09:54:00
5:14 AM,32.0,27.5,83,30.21,10.0,NW,5.8,-,N/A,,Scattered Clouds,310,2012-10-06 10:14:00
5:33 AM,32.0,27.5,83,30.22,10.0,NW,6.9,-,N/A,,Clear,310,2012-10-06 10:33:00
5:53 AM,31.6,27.5,85,30.22,10.0,WNW,5.8,-,N/A,,Scattered Clouds,290,2012-10-06 10:53:00
6:14 AM,30.9,27.1,86,30.23,10.0,WNW,4.6,-,N/A,,Scattered Clouds,300,2012-10-06 11:14:00
6:33 AM,31.1,27.3,86,30.24,10.0,WNW,5.8,-,N/A,,Mostly Cloudy,300,2012-10-06 11:33:00
6:53 AM,31.1,27.1,85,30.24,10.0,WNW,4.6,-,N/A,,Mostly Cloudy,300,2012-10-06 11:53:00
7:14 AM,31.3,27.5,86,30.25,10.0,NW,4.6,-,N/A,,Scattered Clouds,310,2012-10-06 12:14:00
7:34 AM,31.1,27.3,86,30.25,10.0,NW,5.8,-,N/A,,Scattered Clouds,310,2012-10-06 12:34:00
7:54 AM,30.9,27.1,86,30.26,10.0,NW,6.9,-,N/A,,Clear,310,2012-10-06 12:54:00
8:13 AM,31.1,27.1,85,30.27,10.0,WNW,6.9,-,N/A,,Clear,300,2012-10-06 13:13:00
8:33 AM,32.4,28.0,84,30.28,10.0,WNW,3.5,-,N/A,,Clear,300,2012-10-06 13:33:00
8:54 AM,34.7,28.4,78,30.29,10.0,NW,6.9,-,N/A,,Scattered Clouds,320,2012-10-06 13:54:00
9:13 AM,35.2,27.3,73,30.30,10.0,NNW,9.2,-,N/A,,Mostly Cloudy,330,2012-10-06 14:13:00
9:34 AM,35.1,27.3,73,30.30,10.0,NNW,10.4,-,N/A,,Overcast,330,2012-10-06 14:34:00
9:53 AM,34.5,28.8,79,30.31,7.0,NNW,6.9,-,N/A,Snow,Light Snow,330,2012-10-06 14:53:00
10:13 AM,35.1,28.6,77,30.31,10.0,NNW,9.2,-,N/A,,Overcast,340,2012-10-06 15:13:00
10:34 AM,35.6,27.3,72,30.32,10.0,NNW,9.2,-,N/A,,Overcast,330,2012-10-06 15:34:00
10:53 AM,36.1,24.1,62,30.32,10.0,NNW,6.9,-,N/A,,Overcast,340,2012-10-06 15:53:00
11:14 AM,36.1,23.4,60,30.31,10.0,NNW,10.4,-,N/A,,Overcast,330,2012-10-06 16:14:00
11:33 AM,36.7,22.3,56,30.31,10.0,North,8.1,-,N/A,,Overcast,350,2012-10-06 16:33:00
11:53 AM,36.9,21.0,53,30.31,10.0,North,9.2,-,N/A,,Overcast,350,2012-10-06 16:53:00
12:13 PM,37.6,21.2,52,30.31,10.0,North,11.5,16.1,N/A,,Overcast,360,2012-10-06 17:13:00
12:34 PM,38.1,21.2,51,30.31,10.0,North,9.2,-,N/A,,Overcast,360,2012-10-06 17:34:00
12:54 PM,38.1,21.2,51,30.31,10.0,NW,9.2,-,N/A,,Overcast,320,2012-10-06 17:54:00
1:13 PM,39.2,20.8,48,30.31,10.0,NW,6.9,-,N/A,,Overcast,320,2012-10-06 18:13:00
1:34 PM,39.6,21.0,48,30.30,10.0,NNW,6.9,-,N/A,,Overcast,330,2012-10-06 18:34:00
1:53 PM,39.9,20.8,47,30.30,10.0,NNW,10.4,-,N/A,,Overcast,340,2012-10-06 18:53:00
2:13 PM,40.3,20.3,45,30.29,10.0,North,6.9,-,N/A,,Overcast,360,2012-10-06 19:13:00
2:34 PM,40.5,20.7,45,30.28,10.0,NNW,6.9,-,N/A,,Overcast,330,2012-10-06 19:34:00
2:54 PM,41.9,19.8,41,30.28,10.0,WNW,6.9,16.1,N/A,,Overcast,300,2012-10-06 19:54:00
3:13 PM,42.6,19.6,40,30.27,10.0,North,6.9,-,N/A,,Overcast,360,2012-10-06 20:13:00
3:34 PM,41.9,19.6,41,30.26,10.0,NNW,6.9,-,N/A,,Overcast,330,2012-10-06 20:34:00
3:53 PM,43.0,19.2,39,30.26,10.0,North,8.1,-,N/A,,Mostly Cloudy,360,2012-10-06 20:53:00
4:14 PM,43.9,18.9,37,30.25,10.0,NW,9.2,-,N/A,,Mostly Cloudy,320,2012-10-06 21:14:00
4:34 PM,44.1,19.0,37,30.24,10.0,NW,5.8,-,N/A,,Overcast,310,2012-10-06 21:34:00
4:53 PM,43.3,19.0,38,30.24,10.0,NNW,9.2,-,N/A,,Mostly Cloudy,340,2012-10-06 21:53:00
5:13 PM,43.0,19.0,38,30.24,10.0,NW,6.9,-,N/A,,Mostly Cloudy,320,2012-10-06 22:13:00
5:34 PM,43.5,18.7,37,30.24,10.0,NW,8.1,-,N/A,,Scattered Clouds,310,2012-10-06 22:34:00
5:54 PM,42.3,18.9,39,30.24,10.0,NNW,5.8,-,N/A,,Mostly Cloudy,340,2012-10-06 22:54:00
6:13 PM,42.3,19.0,39,30.24,10.0,NW,4.6,-,N/A,,Scattered Clouds,320,2012-10-06 23:13:00
6:33 PM,41.0,18.9,41,30.24,10.0,WNW,3.5,-,N/A,,Clear,300,2012-10-06 23:33:00
6:54 PM,39.4,19.2,44,30.24,10.0,WNW,3.5,-,N/A,,Clear,290,2012-10-06 23:54:00
7:13 PM,37.8,19.9,49,30.25,10.0,WNW,3.5,-,N/A,,Clear,290,2012-10-07 00:13:00
7:33 PM,33.6,18.9,55,30.25,10.0,Calm,Calm,-,N/A,,Clear,0,2012-10-07 00:33:00
7:54 PM,32.0,18.9,58,30.25,10.0,Calm,Calm,-,N/A,,Clear,0,2012-10-07 00:54:00
8:13 PM,30.2,18.5,62,30.25,10.0,West,3.5,-,N/A,,Clear,260,2012-10-07 01:13:00
8:33 PM,28.9,17.4,62,30.25,10.0,WSW,3.5,-,N/A,,Clear,250,2012-10-07 01:33:00
8:54 PM,26.2,17.2,69,30.25,7.0,WSW,3.5,-,N/A,,Clear,250,2012-10-07 01:54:00
9:13 PM,25.9,17.1,69,30.25,10.0,WSW,3.5,-,N/A,,Clear,250,2012-10-07 02:13:00
9:34 PM,24.3,15.8,70,30.25,10.0,WSW,3.5,-,N/A,,Clear,250,2012-10-07 02:34:00
9:53 PM,24.1,15.6,70,30.25,10.0,WSW,3.5,-,N/A,,Clear,240,2012-10-07 02:53:00
10:13 PM,24.4,16.7,72,30.26,10.0,West,3.5,-,N/A,,Clear,260,2012-10-07 03:13:00
10:34 PM,22.8,16.3,76,30.25,10.0,WSW,3.5,-,N/A,,Clear,250,2012-10-07 03:34:00
10:53 PM,23.2,16.7,76,30.25,10.0,WSW,4.6,-,N/A,,Clear,250,2012-10-07 03:53:00
11:13 PM,23.2,16.3,75,30.25,10.0,WSW,4.6,-,N/A,,Clear,250,2012-10-07 04:13:00
11:33 PM,22.6,17.2,80,30.24,10.0,West,3.5,-,N/A,,Clear,260,2012-10-07 04:33:00
11:53 PM,21.2,16.3,82,30.24,10.0,WSW,4.6,-,N/A,,Clear,250,2012-10-07 04:53:00